Flag for Germany Weather for the Past 2 Weeks in Frankfurt an der Oder, Brandenburg, Germany

Now
41 °F

Partly sunny.


Feels Like: 38 °F
Forecast: 44 / 49 °F
Wind: 5 mph from South

Location: Gorzow Wlkp

Current Time: Feb 8, 2016 at 9:18:34 AM

Latest Report: Feb 8, 2016 at 8:00 AM


Visibility: 25 mi

Pressure: 29.60 "Hg

Humidity: 75%

Dew point: 34 °F

Location of Frankfurt an der OderLocation

Historic Weather in Frankfurt an der Oder — Graph

°F

Frankfurt an der Oder Temperature Yesterday

Maximum temperature yesterday: 51 °F (at 2:00 PM)
Minimum temperature yesterday: 36 °F (at 7:00 AM)
Average temperature yesterday: 43 °F

High & Low Weather Summary for the Past Weeks

 TemperatureHumidityPressure
High52 °F (Feb 2, 2:00 PM)100% (Jan 24, 10:00 PM)30.45 "Hg (Jan 24, 10:00 PM)
Low30 °F (Jan 29, 8:00 AM)47% (Feb 2, 3:00 PM)29.54 "Hg (Jan 30, 9:00 PM)
Average42 °F83%29.98 "Hg
* Reported Jan 24 8:00 AM — Feb 8 8:00 AM, Frankfurt an der Oder, Weather by CustomWeather, © 2016

Note: Actual official high and low records may vary slightly from our data, if they occured in-between our weather recording intervals... More about our weather records

Advertising

Frankfurt an der Oder Weather History for the Previous 24 Hours

 ConditionsComfort  
Time TempWeatherWind HumidityBarometerVisibility
8:00 AM
Mon, Feb 8
41 °FPartly sunny.5 mph75%29.60 "Hg25 mi
7:00 AM41 °FPassing clouds.5 mph80%29.62 "Hg25 mi
6:00 AM41 °FOvercast.2 mph81%29.65 "Hg25 mi
5:00 AM41 °FOvercast.2 mph81%29.66 "Hg25 mi
3:00 AM42 °FOvercast.2 mph83%29.68 "Hg16 mi
2:00 AM41 °FOvercast.1 mph83%29.70 "Hg12 mi
11:00 PM
Sun, Feb 7
42 °FLight rain. Overcast.3 mph76%29.68 "Hg9 mi
10:00 PM40 °FOvercast.3 mph82%29.67 "Hg9 mi
9:00 PM39 °FOvercast.2 mph86%29.65 "Hg9 mi
8:00 PM40 °FOvercast.2 mph82%29.65 "Hg9 mi
7:00 PM44 °FOvercast.3 mph75%29.63 "Hg6 mi
6:00 PM45 °FOvercast.3 mph71%29.64 "Hg6 mi
5:00 PM46 °FOvercast.3 mph72%29.64 "Hg6 mi
4:00 PM48 °FOvercast.3 mph67%29.64 "Hg12 mi
3:00 PM51 °FPartly sunny.5 mph59%29.64 "Hg12 mi
2:00 PM51 °FPartly sunny.3 mph59%29.64 "Hg19 mi
1:00 PM50 °FScattered clouds.2 mph60%29.66 "Hg19 mi
12:00 PM47 °FScattered clouds.3 mph67%29.69 "Hg12 mi
11:00 AM43 °FPartly sunny.3 mph74%29.71 "Hg9 mi
10:00 AM40 °FPartly sunny.3 mph78%29.72 "Hg6 mi
9:00 AM37 °FPartly sunny.2 mph86%29.74 "Hg6 mi
Weather by CustomWeather, © 2016

See weather overviewHow to use our weather pages